Showing default

IHOPSAT-TD, 44859

Orbit data source: Space-Track

IHOPSAT-TD, 44859 is a payload satellite owned by Hera Systems (US) in LEO that was launched on Wed, 11 Dec 2019 UTC via a PSLV-QL launch vehicle from the Sirharikota (SRI). Payloads include a variety of satellites, spacecraft, and rockets equipped with specific instruments for various scientific and technological missions. These include communications satellites like Starlink; space stations such as the ISS; scientific satellites like the Hubble; Earth observation satellites from companies like Planet Labs, Umbra, and HawkEye 360; GPS; miniature CubeSats for education and research; and military/defense satellites.

Loading next visibility...
IHOPSAT-TD details
Identifier
44859, 2019-089H
Orbit
LEO
Last TLE update13 hours ago
Origin
Flag of USHera Systems (US)
ManufacturerHera Systems
MissionOperational Commercial Imaging
Bus & MotorCUBESAT 12U, Unknown motor
Mass22 kg wet, 22 kg dry
Launch date (UTC)
2019-12-11 (5 years ago)
Launch vehicle
PSLV-QL
Launch site
Sirharikota (SRI)
Object type
Payload
Rocket body
Debris
Shape & HBRBox, Unknown HBR
Radar Cross Section0.080 m², Small (<0.1 m²)

Expand to show TLE details & history

TLE from 13 hours ago
0 IHOPSAT-TD
1 44859U 19089H   25013.45209473  .00004355  00000-0  28894-3 0  9993
2 44859  36.9684 281.2014 0007637 291.1605  68.8323 15.07173412279406
Epoch: 2025-01-13T10:51Z
Definitive object data (Epoch: 2025-01-13T10:51:00.984Z)
Latitude-0.00001°
Longitude5.27434°
Altitude542.058 km
Speed7.594 km/s
True Right ascension18h 44m 48s
True Declination0° 00' 00"
Sunlit
Object was in daylight at TLE epoch
Visualization TLE readout
Latitude18.98865°
Longitude154.89683°
Altitude547.944 km
Speed7.589 km/s
Apparent Right ascension07h 48m 08s
Apparent Declination-17° 29' 04"
Sunlit
Object is in full shadow
Visualization observer readout
Local Sidereal Time00:47:41
Azimuth94.402° ESE
Elevation-22.551°
Doppler factor1
Orbital elements
Apogee altitude553.047 km
Perigee altitude542.469 km
Semi-major axis6,925.895 km
Eccentricity0.0007637
Inclination36.9684°
RAAN281.2014°
Arg. of periapsis291.1605°
True anomaly68.91394°
Mean anomaly68.8323°
Eccentric anomaly68.87312°
Mean motion3.76556 °/min
BSTAR0.00028894
Orbital period95.6 mins
Loading maneuver chart data...
Loading historical data...
Loading historical data...
Loading historical data...
Loading historical data...
Loading historical data...
Loading historical data...
Loading historical data...

IHOPSAT-TD Visibility forecast

Observer location: undefined°, undefined

Span
Click to sort rows by Start time (UTC) header in descending order
Start Az.
Max El. time (UTC)
Max El. Az.
Max El.
End time (UTC)
End Az.
7 mins2025-01-14 01:35:16.359Z261.235° W2025-01-14 01:38:16.359Z208.978° SW30.987°2025-01-14 01:42:16.359Z129.125° SE
6 mins2025-01-14 22:07:16.359Z227.048° WSW2025-01-14 22:09:16.359Z176.486° S34.373°2025-01-14 22:13:16.359Z95.938° ESE
6 mins2025-01-14 23:47:16.359Z256.297° W2025-01-14 23:50:16.359Z168.76° S39.412°2025-01-14 23:53:16.359Z108.085° ESE
|